Location: Hermaringen
(48.5952°N, 10.2585°E)
Time: 19:59:01
(UTC+00:00)

S-56A Canister/Altair - Pass Details

Date: 19 February 2026
Orbit: 633 x 2484 km, 38.9° (Epoch: 13 March)

Event Time Altitude Azimuth Distance (km) Brightness Sun altitude
Exits shadow 04:19:39 21° 231° (SW) 3,160 10.1 -20.5°
Maximum altitude 04:22:31 24° 209° (SSW) 3,202 10.3 -20.0°
Drops below altitude 10° 04:31:37 10° 164° (SSE) 4,720 11.7 -18.5°
Sets 04:36:47 0° 152° (SSE) 5,943 12.4 -17.7°
